Copper Harbor, MI

8:39 AM EST on February 28, 2017 (GMT -0500)
Copper Harbor

Weather History for KP59 - November, 2012

Change the Weather History Date:

Thursday, November 15, 2012

  Actual Average Record
Temperature  
Mean Temperature 43 °F -  
Max Temperature 51 °F 37 °F 61 °F (2001)
Min Temperature 34 °F 28 °F 3 °F (1996)
Degree Days  
Heating Degree Days 22    
Moisture  
Dew Point 29 °F    
Average Humidity 64    
Maximum Humidity 79    
Minimum Humidity 46    
Precipitation  
Precipitation 0.00 in - - ()
Sea Level Pressure  
Sea Level Pressure 30.20 in    
Wind  
Wind Speed 11 mph (WNW)    
Max Wind Speed 22 mph    
Max Gust Speed 24 mph    
Averages and records for this station are not official NWS values.
T = Trace of Precipitation, MM = Missing Value Source: NWS Daily Summary

Daily Weather History Graph

Daily Weather History Graph

Search for Another Location

Airport or City:

Trip Planner

Search our weather history database for the weather conditions in past years. The results will help you decide how hot, cold, wet, or windy it might be!

Date:

Astronomy

Nov. 15, 2012 Rise Set
Actual Time 7:57 AM EST 5:15 PM EST
Civil Twilight 7:23 AM EST 5:48 PM EST
Nautical Twilight 6:46 AM EST 6:25 PM EST
Astronomical Twilight 6:09 AM EST 7:02 PM EST
Moon 9:57 AM EST (11/15) 7:01 PM EST (11/15)
Length of Visible Light 10h 25m
Length of Day
9h 17m
Waxing Crescent, 5% of the Moon is Illuminated
Nov 15
Waxing Crescent
Nov 20
First Quarter
Nov 28
Full
Dec 6
Last Quarter
Dec 13
New

Hourly Weather History & Observations

Time (EST) Temp. Windchill Dew Point Humidity Pressure Visibility Wind Dir Wind Speed Gust Speed Precip Events Conditions
12:51 AM 37.9 °F 32.7 °F 28.9 °F 70% 30.19 in - WSW 6.9 mph - N/A   Unknown
1:51 AM 37.0 °F 29.8 °F 28.9 °F 73% 30.18 in - SW 10.4 mph 16.1 mph N/A   Unknown
2:51 AM 37.9 °F 32.1 °F 28.9 °F 70% 30.17 in - WSW 8.1 mph - N/A   Unknown
3:51 AM 37.9 °F 31.5 °F 28.9 °F 70% 30.17 in - WSW 9.2 mph - N/A   Unknown
4:51 AM 39.0 °F 33.4 °F 30.9 °F 73% 30.14 in - WSW 8.1 mph - N/A   Unknown
5:51 AM 39.0 °F 31.8 °F 30.0 °F 70% 30.14 in - WSW 11.5 mph 18.4 mph N/A   Unknown
6:51 AM 37.9 °F 31.5 °F 30.0 °F 73% 30.13 in - WSW 9.2 mph 16.1 mph N/A   Unknown
7:51 AM 39.0 °F 32.8 °F 30.0 °F 70% 30.13 in - WSW 9.2 mph 17.3 mph N/A   Unknown
8:51 AM 39.9 °F 32.5 °F 30.0 °F 68% 30.12 in - WSW 12.7 mph 19.6 mph N/A   Unknown
9:51 AM 41.0 °F 34.3 °F 30.0 °F 65% 30.12 in - WSW 11.5 mph 23.0 mph N/A   Unknown
10:51 AM 43.0 °F 37.2 °F 30.9 °F 62% 30.10 in - WSW 10.4 mph 20.7 mph N/A   Unknown
11:51 AM 48.0 °F - 32.0 °F 54% 30.11 in - West 9.2 mph - N/A   Unknown
12:51 PM 51.1 °F - 30.9 °F 46% 30.10 in - Variable 6.9 mph - N/A   Unknown
1:51 PM 50.0 °F - 32.0 °F 50% 30.12 in - NW 13.8 mph 20.7 mph N/A   Unknown
2:51 PM 46.9 °F - 34.0 °F 61% 30.13 in - NNW 12.7 mph 23.0 mph N/A   Unknown
3:51 PM 44.1 °F 37.7 °F 35.1 °F 71% 30.17 in - NNW 12.7 mph 20.7 mph N/A   Unknown
4:51 PM 42.1 °F 34.9 °F 36.0 °F 79% 30.22 in - NNW 13.8 mph 21.9 mph N/A   Unknown
5:51 PM 43.0 °F 36.0 °F 30.9 °F 62% 30.24 in - North 13.8 mph - N/A   Unknown
6:51 PM 42.1 °F 32.8 °F 28.0 °F 58% 30.27 in - NNE 21.9 mph - N/A   Unknown
7:51 PM 39.9 °F 30.0 °F 26.1 °F 58% 30.31 in - NNE 21.9 mph - N/A   Unknown
8:51 PM 39.0 °F 29.3 °F 25.0 °F 57% 30.35 in - NNE 19.6 mph - N/A   Unknown
9:51 PM 36.0 °F 26.3 °F 21.0 °F 55% 30.38 in - NE 16.1 mph 23.0 mph N/A   Unknown
10:51 PM 35.1 °F 25.2 °F 21.9 °F 59% 30.40 in - NNE 16.1 mph 24.2 mph N/A   Unknown
11:51 PM 34.0 °F 24.6 °F 21.0 °F 59% 30.42 in - NE 13.8 mph 20.7 mph N/A   Unknown